Flag for Poland Weather past 2 weeks in Koszalin, Poland

Now
69 °F

Clear.


Feels Like: 69 °F
Forecast: 63 / 86 °F
Wind: 3 mph from Southeast

Location: Koszalin

Current Time: Aug 4, 2015 at 1:32:52 AM

Latest Report: Aug 4, 2015 at 12:00 AM


Visibility: 25 mi

Pressure: 30.10 "Hg

Humidity: 55%

Dew point: 52 °F

Location of KoszalinLocation

Historic Weather in Koszalin — Graph

°F

Koszalin temperature yesterday

Maximum temperature yesterday: 76 °F (at 5:00 PM)
Minimum temperature yesterday: 54 °F (at 6:00 AM)
Average temperature yesterday: 66 °F

Past Weeks' High & Low Weather Summary

 TemperatureHumidityPressure
High77 °F (Jul 25, 5:00 PM)97% (Aug 3, 7:00 AM)30.15 "Hg (Aug 3, 7:00 AM)
Low49 °F (Aug 1, 4:00 AM)45% (Aug 2, 12:00 PM)29.50 "Hg (Jul 25, 7:00 PM)
Average61 °F75%29.85 "Hg
* Reported Jul 19 10:00 PM — Aug 3 10:00 PM, Koszalin, Weather by CustomWeather, © 2015

Note: Actual official high and low records may vary slightly from our data, if they occured in-between our weather recording intervals... More about our weather records

Advertising

Koszalin weather history for previous 24 hours

 ConditionsComfort  
Time TempWeatherWind HumidityBarometerVisibility
10:00 PM
Mon, Aug 3
68 °FPassing clouds.1 mph66%30.11 "Hg16 mi
9:00 PM67 °FPassing clouds.1 mph65%30.11 "Hg19 mi
8:00 PM73 °FPassing clouds.1 mph55%30.10 "Hg22 mi
7:00 PM75 °FPassing clouds.2 mph54%30.10 "Hg22 mi
6:00 PM76 °FPassing clouds.3 mph51%30.11 "Hg22 mi
5:00 PM76 °FPassing clouds.3 mph52%30.12 "Hg18 mi
4:00 PM75 °FScattered clouds.3 mph49%30.13 "Hg19 mi
3:00 PM74 °FPartly sunny.5 mph51%30.14 "Hg16 mi
2:00 PM73 °FPartly sunny.5 mph55%30.15 "Hg19 mi
1:00 PM72 °FPartly sunny.3 mph65%30.15 "Hg22 mi
12:00 PM75 °FScattered clouds.2 mph48%30.14 "Hg19 mi
11:00 AM72 °FScattered clouds.2 mph54%30.15 "Hg19 mi
10:00 AM70 °FPassing clouds.2 mph60%30.14 "Hg17 mi
9:00 AM65 °FPassing clouds.2 mph72%30.14 "Hg16 mi
8:00 AM63 °FFog.1 mph82%30.14 "Hg14 mi
7:00 AM59 °FFog.1 mph97%30.14 "Hg1 mi
6:00 AM54 °FFog.1 mph96%30.13 "Hg0 mi
5:00 AM55 °FFog.1 mph96%30.12 "Hg0 mi
4:00 AM54 °FFog.1 mph95%30.13 "Hg0 mi
3:00 AM55 °FFog.1 mph95%30.13 "Hg0 mi
2:00 AM56 °FFog.1 mph94%30.13 "Hg0 mi
1:00 AM57 °FFog.1 mph93%30.13 "Hg6 mi
Weather by CustomWeather, © 2015

See weather overviewHow to use our weather pages